TimeCST,TemperatureF,Dew PointF,Humidity,Sea Level PressureIn,VisibilityMPH,Wind Direction,Wind SpeedMPH,Gust SpeedMPH,PrecipitationIn,Events,Conditions,WindDirDegrees,DateUTC
12:54 AM,19.9,17.1,89,30.45,10.0,SW,5.8,-,N/A,,Clear,220,2013-01-04 06:54:00
1:54 AM,21.0,18.0,88,30.45,10.0,SW,5.8,-,N/A,,Clear,230,2013-01-04 07:54:00
2:54 AM,19.0,16.0,88,30.44,10.0,SSW,6.9,-,N/A,,Clear,210,2013-01-04 08:54:00
3:54 AM,17.1,15.1,92,30.42,10.0,SSW,5.8,-,N/A,,Clear,200,2013-01-04 09:54:00
4:54 AM,18.0,16.0,92,30.41,10.0,South,4.6,-,N/A,,Clear,180,2013-01-04 10:54:00
7:54 AM,23.0,18.0,81,30.40,10.0,SSW,11.5,-,N/A,,Clear,200,2013-01-04 13:54:00
8:54 AM,25.0,21.0,85,30.41,10.0,SSW,15.0,-,N/A,,Clear,200,2013-01-04 14:54:00
9:54 AM,28.9,21.9,75,30.42,10.0,SSW,11.5,-,N/A,,Clear,210,2013-01-04 15:54:00
10:54 AM,34.0,23.0,64,30.40,10.0,SSW,11.5,-,N/A,,Clear,210,2013-01-04 16:54:00
11:54 AM,37.9,24.1,57,30.38,10.0,SSW,10.4,-,N/A,,Clear,200,2013-01-04 17:54:00
12:54 PM,41.0,24.1,51,30.35,10.0,SW,11.5,-,N/A,,Clear,220,2013-01-04 18:54:00
1:54 PM,43.0,25.0,49,30.31,10.0,SSW,13.8,20.7,N/A,,Clear,210,2013-01-04 19:54:00
2:54 PM,44.1,25.0,47,30.30,10.0,SSW,13.8,-,N/A,,Clear,210,2013-01-04 20:54:00
3:54 PM,44.1,25.0,47,30.30,10.0,SSW,15.0,-,N/A,,Clear,210,2013-01-04 21:54:00
4:54 PM,39.9,25.0,55,30.29,10.0,SSW,6.9,-,N/A,,Clear,200,2013-01-04 22:54:00
5:54 PM,37.0,25.0,62,30.29,10.0,South,5.8,-,N/A,,Clear,190,2013-01-04 23:54:00
6:54 PM,33.1,24.1,70,30.30,10.0,South,8.1,-,N/A,,Clear,170,2013-01-05 00:54:00
7:54 PM,37.0,24.1,59,30.29,10.0,South,12.7,-,N/A,,Clear,190,2013-01-05 01:54:00
8:54 PM,36.0,25.0,64,30.28,10.0,SSW,12.7,-,N/A,,Scattered Clouds,200,2013-01-05 02:54:00
9:54 PM,34.0,25.0,70,30.27,10.0,SSW,10.4,-,N/A,,Clear,200,2013-01-05 03:54:00
10:54 PM,34.0,26.1,73,30.27,10.0,SSW,11.5,-,N/A,,Mostly Cloudy,200,2013-01-05 04:54:00
11:54 PM,35.1,26.1,70,30.26,10.0,South,9.2,-,N/A,,Overcast,190,2013-01-05 05:54:00